{"data":{"norad_id":62269,"epoch":"2026-09-21T04:53:12.796512Z","epoch_age_seconds":116811,"freshness":"FRESH","line1":"1 62269U 24237C   26264.20362033  .00193542  00000+0  14668-2 0  9992","line2":"2 62269  42.9977 317.9284 0001748 205.6216 154.4565 15.71004855103809","mean_motion":15.71004855,"eccentricity":0.0001748,"inclination_deg":42.9977,"raan_deg":317.9284,"arg_perigee_deg":205.6216,"mean_anomaly_deg":154.4565,"bstar":0.0014668,"rev_number":10380,"period_min":91.661078921363,"perigee_km":354.84678500142,"apogee_km":357.20104765777,"semimajor_km":6734.1609163296,"source":"CELESTRAK","updated_at":"2026-09-22T09:00:49.565944Z"}}